Temperature
9 9 9 9 9 9 9 9 9 9 9 9 9 9 9 9 9 10 10 10 10 10 10 10 10 10 10 10 10 10 10 10 10 10 10 10 10 10 10 11 11 11 11
8 8 8 8 8 8 8 8 9 9 9 9 9 9 9 9 9 9 9 9 9 9 9 9 9 9 9 9 9 10 10 10 10 10 10 10 10 10 10 10 10 10 10
7 7 7 7 8 8 8 8 8 8 8 8 8 8 8 8 8 8 8 8 9 9 9 9 9 9 9 9 9 9 9 9 9 9 9 9 9 10 10 10 10 10 10
7 7 7 7 7 7 7 7 7 7 8 7 7 7 7 7 7 8 8 8 8 8 8 8 8 8 8 8 8 8 9 9 9 9 9 9 9 9 9 9 9 9 9
6 6 6 6 6 6 6 6 7 7 7 7 7 7 7 7 7 7 7 7 7 7 7 8 8 8 8 8 7 8 8 8 8 8 8 8 9 9 9 9 9 9 9
5 5 6 5 6 6 6 6 6 6 6 6 6 6 6 6 6 6 6 6 6 7 7 7 7 7 7 7 7 7 7 7 7 8 8 8 8 8 8 8 8 9 9
5 5 5 5 5 5 5 5 5 5 5 5 5 5 5 5 5 5 5 5 6 6 6 6 6 6 6 6 6 6 6 6 7 7 7 7 7 7 8 8 8 8 8
4 4 4 4 4 4 4 4 4 4 4 4 4 4 4 4 4 4 5 5 5 5 5 5 5 5 6 6 6 6 6 6 6 6 6 6 7 7 7 7 7 7 8
3 3 3 3 3 4 4 4 4 4 4 4 3 3 3 3 3 4 4 4 4 4 4 4 4 5 5 5 5 5 5 5 5 5 5 6 6 6 6 7 7 7 7
3 3 3 3 3 3 3 3 3 3 3 3 3 3 3 2 2 2 3 3 3 3 3 3 3 4 4 4 4 4 4 4 4 5 5 5 5 5 5 6 6 6 6
2 2 2 2 2 2 2 2 2 2 2 2 2 2 2 2 2 2 2 2 2 2 3 3 3 3 3 3 3 3 4 4 4 4 4 4 4 4 5 5 5 5 5
2 1 1 1 1 1 2 2 1 1 1 1 1 1 1 1 1 1 1 1 1 2 2 2 2 2 2 2 2 3 3 3 3 3 3 3 3 4 4 4 4 4 5
1 1 1 1 1 1 1 1 1 1 0 1 1 0 1 0 0 0 0 0 0 1 1 1 1 1 1 1 1 2 2 2 2 2 2 2 3 3 3 3 3 4 4
0 -0 -0 -0 -0 -0 -0 -0 -0 -0 -0 -0 -0 -0 -0 -0 -1 -1 -1 -1 -1 -1 -0 -0 0 0 0 0 1 1 1 1 1 1 2 2 2 2 2 3 3 3 3
-1 -1 -1 -1 -1 -1 -1 -1 -1 -1 -1 -1 -1 -1 -1 -1 -1 -1 -1 -1 -2 -2 -2 -1 -1 -1 -1 -1 -0 -0 0 0 0 1 1 1 1 1 2 2 2 2 2
-2 -2 -2 -2 -2 -1 -1 -2 -2 -2 -2 -2 -2 -2 -2 -2 -2 -2 -2 -2 -2 -2 -2 -2 -2 -1 -1 -2 -1 -1 -1 -1 -0 -0 -0 0 0 1 1 1 1 1 2
-2 -2 -2 -2 -2 -2 -2 -2 -2 -2 -2 -2 -3 -3 -3 -3 -3 -3 -3 -3 -3 -3 -3 -3 -2 -2 -2 -2 -2 -2 -2 -1 -1 -1 -1 -1 -1 -0 -0 -0 0 0 1
-3 -3 -3 -3 -3 -3 -3 -3 -3 -3 -3 -3 -3 -3 -3 -3 -3 -3 -3 -3 -3 -4 -4 -3 -3 -3 -3 -3 -3 -3 -3 -2 -2 -2 -2 -2 -1 -1 -1 -1 -1 -0 -0
-4 -4 -4 -4 -4 -4 -4 -4 -4 -4 -4 -4 -4 -4 -4 -4 -4 -4 -4 -4 -4 -4 -4 -4 -4 -4 -4 -4 -4 -4 -3 -3 -3 -3 -3 -3 -2 -2 -2 -2 -2 -1 -1
-4 -4 -4 -4 -5 -5 -5 -5 -5 -5 -5 -5 -5 -5 -5 -5 -5 -5 -5 -5 -5 -5 -5 -5 -5 -5 -5 -5 -5 -4 -4 -4 -4 -4 -3 -3 -3 -3 -3 -3 -2 -2 -2
-5 -5 -5 -5 -5 -5 -5 -5 -5 -5 -5 -5 -5 -5 -5 -5 -5 -6 -6 -6 -5 -5 -6 -6 -6 -5 -5 -5 -5 -5 -5 -5 -4 -4 -4 -4 -4 -4 -4 -3 -3 -3 -3
-6 -6 -6 -6 -6 -6 -6 -6 -6 -6 -6 -6 -6 -6 -6 -6 -6 -6 -6 -6 -6 -6 -6 -6 -6 -6 -6 -6 -6 -6 -6 -6 -6 -5 -5 -5 -5 -5 -4 -4 -4 -4 -4
-7 -7 -7 -7 -7 -7 -7 -7 -7 -7 -7 -7 -7 -7 -7 -7 -7 -7 -7 -7 -7 -7 -7 -7 -7 -7 -7 -7 -7 -7 -7 -7 -6 -6 -6 -6 -5 -5 -5 -5 -5 -5 -5
-7 -7 -7 -7 -7 -7 -7 -7 -7 -8 -7 -7 -7 -7 -7 -7 -7 -7 -7 -7 -7 -7 -7 -7 -7 -7 -7 -7 -7 -7 -7 -7 -7 -7 -7 -7 -6 -6 -6 -5 -5 -5 -5
-8 -8 -8 -8 -8 -8 -8 -8 -8 -8 -8 -8 -8 -8 -8 -8 -8 -8 -8 -8 -8 -8 -8 -8 -8 -8 -8 -8 -8 -8 -8 -8 -8 -8 -7 -7 -7 -7 -6 -6 -6 -6 -6
-8 -8 -8 -9 -9 -8 -9 -9 -9 -9 -9 -9 -9 -9 -9 -9 -9 -9 -9 -9 -8 -8 -9 -9 -8 -8 -8 -8 -8 -8 -8 -9 -9 -9 -8 -8 -8 -8 -8 -7 -7 -7 -6
Wind_Speed
6 6 6 7 8 8 8 7 7 8 8 8 8 8 8 8 8 8 8 11 12 11 10 10 10 9 9 9 9 8 8 7 6 6 5 4 4 4 4 3 3 3 3
6 6 6 6 7 7 7 6 6 6 6 6 7 7 7 7 8 8 8 9 12 13 11 10 10 9 9 9 9 9 9 8 8 7 6 4 3 3 3 4 3 2 2
6 6 5 5 6 6 7 7 7 7 6 6 6 7 7 7 7 8 8 9 9 11 13 12 10 10 9 9 8 9 10 9 9 8 7 6 4 3 3 3 4 4 3
6 6 5 5 5 6 6 5 5 4 4 4 4 5 6 6 7 7 8 8 9 9 11 12 12 11 11 10 10 10 10 10 10 9 8 6 5 4 3 3 3 4 4
6 6 5 4 5 5 5 4 4 3 3 3 3 4 5 5 6 6 7 8 9 10 10 11 12 12 11 11 10 10 9 9 9 9 8 7 6 5 4 3 3 4 4
5 5 5 5 5 4 4 4 3 4 2 2 3 3 3 4 6 7 7 8 9 10 10 11 11 11 12 13 12 11 10 9 8 8 7 7 7 6 5 3 3 3 3
5 5 4 4 4 3 3 3 2 3 3 2 2 2 3 4 5 5 7 7 9 10 11 11 11 11 12 13 14 14 12 11 9 8 7 6 6 6 5 5 5 3 3
4 4 4 3 3 3 3 3 3 2 2 2 2 1 1 2 4 4 5 6 7 9 10 10 11 11 11 11 12 13 13 12 10 10 9 7 6 6 5 5 6 6 4
3 3 3 3 3 3 2 2 2 2 1 1 2 1 1 1 1 2 3 4 5 6 7 9 9 10 10 10 10 11 13 12 11 10 9 9 9 8 7 6 6 5 6
2 2 3 3 3 3 2 1 2 1 2 1 1 2 1 1 1 1 2 3 4 4 5 6 7 8 9 9 10 11 11 11 11 11 9 9 9 8 7 7 7 7 7
2 2 2 2 2 2 2 2 1 1 1 2 1 0 1 1 1 1 1 2 3 2 3 4 5 6 8 9 9 10 11 11 11 10 10 9 8 8 8 7 7 8 8
1 1 1 1 1 1 1 1 1 1 1 1 1 1 1 1 0 1 1 2 2 2 2 2 3 5 6 7 8 10 11 10 10 10 10 10 8 8 8 8 8 7 7
0 1 0 0 1 1 1 2 2 1 1 1 1 1 1 1 1 1 1 1 2 2 2 1 1 3 5 6 8 9 10 11 10 10 9 9 10 9 8 8 8 7 7
2 1 0 0 0 1 1 1 1 1 1 1 1 1 1 1 1 1 1 1 1 2 2 2 1 2 5 6 7 9 9 10 10 10 9 9 9 9 8 7 8 8 7
1 1 1 1 1 1 1 1 1 1 1 1 1 1 1 1 1 1 1 1 2 2 3 2 1 2 5 6 7 7 8 9 9 9 9 9 8 8 9 7 7 7 7
2 2 2 2 2 1 1 2 2 2 2 2 2 2 2 1 1 1 2 1 2 3 3 2 2 3 4 5 7 7 7 8 8 8 8 8 8 8 8 9 7 7 7
2 2 2 2 2 2 2 3 3 3 3 3 3 3 3 2 2 2 2 2 2 2 4 3 2 2 3 3 5 6 6 6 7 8 8 8 7 7 7 8 8 7 7
2 3 3 2 3 3 3 4 4 4 4 4 4 4 4 3 3 3 3 3 3 3 3 4 3 2 3 3 4 4 5 5 6 7 8 7 7 7 8 8 9 8 7
2 2 2 3 3 3 3 4 5 5 5 5 5 5 5 4 4 4 4 4 3 3 3 4 3 2 2 3 3 3 4 4 5 7 7 7 7 7 8 8 9 9 8
2 3 3 3 4 4 4 4 4 5 5 5 5 6 6 6 6 5 5 5 4 4 3 3 3 3 2 2 2 3 3 2 4 6 6 7 7 8 8 8 9 9 9
3 3 3 3 4 4 5 5 5 5 5 5 5 5 6 7 8 7 5 5 5 4 4 4 4 3 3 2 3 2 3 3 4 3 3 4 6 6 7 8 8 9 9
3 3 3 4 4 4 7 8 6 4 5 5 5 5 6 7 9 9 9 9 8 6 5 5 4 5 5 4 3 3 3 3 4 2 2 4 5 4 6 7 9 9 9
2 3 4 4 5 7 9 9 9 5 4 4 5 5 5 6 8 5 7 9 10 11 10 6 6 6 5 5 4 4 4 4 5 3 2 5 3 4 6 8 10 9 9
3 3 4 4 4 7 10 10 9 5 4 4 5 6 6 5 6 6 6 6 6 7 9 7 6 6 6 6 6 5 5 4 3 3 3 4 4 4 6 7 9 9 8
3 4 4 4 5 7 10 10 9 3 4 5 6 6 6 6 10 10 7 6 6 6 9 11 11 10 10 9 6 3 3 3 4 4 3 3 3 4 4 5 7 7 8
4 4 5 4 5 6 10 10 9 4 5 5 5 6 9 9 11 11 6 6 7 7 5 6 7 8 7 8 8 5 4 4 4 4 3 3 3 2 3 3 4 5 6
Wind_Direction
64 61 55 52 48 49 51 48 46 45 43 46 49 49 44 42 39 38 33 34 37 42 44 46 51 56 58 58 58 55 54 54 52 48 48 64 77 74 72 84 88 80 79
79 72 60 53 47 48 49 53 50 48 42 44 44 44 44 43 43 42 38 35 36 39 42 44 46 48 51 52 53 51 51 52 50 48 48 54 70 69 67 62 64 79 79
85 80 66 54 47 54 56 57 53 53 48 44 38 35 40 43 48 44 42 39 34 35 37 38 40 41 43 44 46 48 46 45 44 43 46 48 56 60 62 62 56 58 69
88 83 69 53 54 64 61 54 48 47 41 37 31 25 31 38 46 46 45 42 39 34 31 33 36 39 41 40 40 40 39 40 38 37 38 41 46 51 53 51 47 50 57
86 87 76 63 68 65 55 53 47 49 45 34 32 28 28 35 38 44 45 42 42 41 36 30 32 35 35 33 32 31 29 32 31 30 31 35 37 38 37 38 36 44 49
85 88 80 72 76 66 55 53 61 51 50 38 41 36 26 34 42 43 40 42 42 41 40 38 36 32 31 29 28 23 21 20 22 22 24 28 31 30 30 21 22 31 30
84 87 75 70 73 75 74 69 71 65 42 27 53 34 25 39 46 37 37 42 39 38 40 41 39 38 35 31 28 25 21 21 17 15 12 17 23 22 20 29 25 12 359
85 85 79 77 73 82 82 69 78 74 52 35 65 72 14 6 25 25 29 36 33 35 37 38 40 39 36 31 25 24 19 15 14 17 15 10 10 10 13 14 19 14 359
88 91 94 88 80 88 116 111 105 105 120 28 38 100 144 215 315 360 28 32 29 31 31 32 34 35 33 28 22 21 19 14 11 8 8 11 14 14 15 11 4 358 5
75 91 101 101 90 80 105 116 92 112 135 139 23 34 62 130 151 314 343 12 15 22 19 23 28 29 28 25 19 18 16 11 8 5 359 2 5 3 8 9 9 8 3
54 75 100 100 94 89 94 91 85 91 133 154 152 102 54 36 65 161 259 329 350 356 4 13 22 24 22 20 15 10 8 7 2 0 359 354 355 355 355 356 358 359 1
36 44 87 113 113 103 112 123 120 124 150 151 149 137 141 149 179 160 220 300 303 309 327 354 16 13 11 13 7 5 3 359 355 352 351 352 348 348 347 350 347 347 350
271 277 25 117 139 151 145 123 119 147 168 162 173 203 195 208 185 198 216 274 293 299 294 298 352 354 356 3 358 356 357 354 347 343 342 343 346 341 341 340 337 337 338
221 234 220 233 230 173 158 126 124 162 147 176 213 217 235 250 233 223 199 194 291 300 280 274 314 336 345 344 342 348 347 346 345 345 345 346 344 344 336 333 334 334 337
221 214 225 224 245 204 176 161 180 197 191 214 217 223 243 255 248 262 239 206 197 244 260 262 276 320 329 326 329 337 338 337 337 337 337 339 344 341 342 326 327 330 332
220 210 223 228 232 226 208 199 213 204 199 228 227 217 234 247 246 248 238 233 218 219 247 256 254 298 313 318 324 333 331 334 333 328 328 330 336 335 334 339 334 335 332
216 223 223 228 226 225 213 208 223 211 210 227 230 223 235 233 233 245 241 234 229 214 242 272 279 303 297 306 318 323 325 325 322 322 321 321 326 333 332 335 330 325 323
226 234 232 228 233 235 226 218 223 220 217 224 228 225 234 234 227 233 229 231 232 227 226 257 273 272 277 287 295 307 316 314 314 316 316 315 320 326 330 324 328 322 320
234 242 233 233 238 241 242 239 231 226 225 227 226 226 230 226 234 236 234 233 234 241 229 238 260 261 275 286 300 304 309 306 308 312 310 313 313 316 321 320 318 320 314
226 233 236 237 238 242 247 248 244 236 232 234 232 228 228 226 230 233 238 233 230 233 230 234 251 260 269 274 269 287 303 300 306 308 300 305 309 311 311 311 309 309 306
242 242 245 249 247 243 239 238 241 239 232 233 234 233 234 238 239 237 240 230 221 225 229 235 244 254 255 259 258 263 284 299 297 287 292 302 308 306 306 304 306 307 301
249 249 247 252 255 256 260 257 255 244 236 234 239 242 244 246 248 252 256 251 241 233 228 231 240 239 245 246 250 260 276 291 291 275 290 294 297 289 296 296 298 301 307
244 248 251 251 256 260 265 265 259 251 238 238 238 244 254 250 253 250 256 259 259 258 253 244 234 237 238 233 230 249 253 262 268 268 281 288 284 283 288 290 295 296 304
240 246 252 252 259 267 272 271 267 262 245 243 243 239 245 250 249 248 242 245 248 256 256 253 238 238 239 231 226 234 244 260 274 267 251 272 280 279 289 284 284 290 299
242 247 249 247 255 270 276 273 269 259 257 253 252 249 248 246 256 260 248 242 249 258 263 257 257 258 256 253 247 235 240 256 274 274 242 247 273 288 286 277 276 283 293
244 251 257 250 252 262 271 272 267 253 254 258 258 254 258 259 260 259 247 238 245 250 251 258 260 262 260 251 247 234 228 243 263 266 235 228 261 292 294 275 269 284 292
Height
1543 1544 1545 1545 1546 1546 1547 1547 1548 1548 1549 1550 1550 1551 1551 1551 1552 1552 1552 1553 1553 1554 1554 1554 1554 1555 1555 1555 1555 1555 1554 1554 1554 1555 1555 1556 1556 1556 1557 1557 1558 1558 1558
1542 1543 1544 1544 1545 1545 1546 1546 1546 1547 1547 1548 1549 1549 1550 1550 1550 1551 1551 1552 1552 1552 1553 1553 1553 1554 1554 1554 1554 1554 1553 1553 1553 1553 1554 1554 1555 1555 1556 1556 1557 1557 1558
1541 1541 1542 1543 1543 1544 1544 1545 1545 1545 1546 1546 1547 1548 1548 1548 1549 1549 1550 1550 1551 1551 1551 1552 1552 1552 1552 1553 1552 1552 1552 1552 1552 1552 1552 1553 1553 1554 1554 1555 1555 1556 1556
1538 1539 1540 1541 1541 1542 1542 1542 1543 1543 1544 1544 1545 1546 1546 1547 1547 1547 1548 1548 1549 1549 1550 1550 1550 1551 1551 1551 1551 1551 1551 1550 1551 1551 1551 1551 1552 1552 1553 1553 1554 1555 1555
1536 1537 1538 1538 1539 1540 1540 1540 1540 1541 1541 1542 1542 1543 1544 1544 1545 1545 1546 1546 1547 1547 1548 1548 1549 1549 1549 1549 1550 1549 1549 1549 1549 1549 1550 1550 1550 1551 1551 1552 1553 1553 1553
1534 1534 1535 1536 1537 1537 1537 1537 1538 1539 1539 1540 1540 1541 1541 1542 1542 1543 1543 1544 1544 1545 1545 1546 1546 1547 1547 1547 1547 1547 1547 1547 1547 1548 1548 1548 1548 1549 1549 1550 1550 1551 1552
1531 1532 1532 1533 1534 1534 1535 1535 1535 1536 1537 1537 1538 1538 1539 1539 1540 1540 1541 1541 1542 1542 1543 1543 1544 1544 1544 1545 1545 1545 1545 1545 1545 1545 1546 1546 1546 1547 1547 1548 1548 1548 1549
1528 1529 1529 1530 1531 1532 1532 1533 1533 1533 1534 1535 1535 1535 1536 1537 1537 1538 1538 1539 1539 1540 1540 1540 1541 1541 1541 1542 1542 1542 1542 1542 1543 1543 1543 1544 1544 1544 1545 1545 1545 1546 1546
1525 1526 1527 1527 1528 1529 1529 1530 1530 1531 1531 1532 1533 1534 1534 1533 1534 1535 1535 1536 1536 1537 1537 1538 1538 1538 1538 1538 1538 1539 1539 1540 1540 1540 1541 1541 1541 1541 1541 1542 1542 1543 1543
1522 1523 1523 1524 1525 1525 1526 1527 1527 1528 1529 1529 1530 1531 1532 1532 1532 1531 1532 1533 1534 1534 1534 1535 1535 1535 1535 1535 1535 1536 1536 1536 1536 1537 1537 1538 1538 1538 1539 1539 1539 1539 1540
1518 1519 1520 1520 1521 1522 1522 1523 1524 1525 1526 1526 1527 1527 1528 1529 1529 1530 1529 1529 1530 1531 1531 1531 1532 1532 1532 1532 1532 1532 1532 1533 1533 1533 1534 1534 1535 1535 1535 1535 1535 1536 1536
1514 1515 1516 1517 1517 1518 1519 1520 1521 1522 1522 1523 1524 1525 1525 1526 1526 1526 1526 1525 1526 1527 1528 1528 1528 1529 1529 1528 1528 1529 1529 1529 1529 1530 1530 1530 1531 1531 1531 1531 1532 1532 1532
1510 1511 1512 1513 1514 1514 1515 1516 1517 1518 1519 1520 1520 1521 1522 1522 1523 1524 1524 1523 1523 1523 1524 1525 1524 1525 1525 1525 1525 1525 1525 1525 1526 1526 1526 1526 1526 1527 1527 1527 1528 1528 1528
1506 1507 1508 1509 1510 1511 1511 1512 1513 1514 1515 1516 1517 1517 1518 1519 1520 1520 1521 1521 1520 1520 1520 1521 1520 1521 1522 1522 1522 1522 1521 1521 1522 1522 1522 1522 1522 1522 1522 1523 1523 1523 1523
1503 1504 1504 1505 1506 1507 1507 1508 1509 1510 1511 1512 1512 1513 1514 1515 1516 1516 1517 1518 1519 1517 1516 1516 1517 1518 1518 1518 1518 1518 1518 1518 1518 1518 1518 1518 1518 1518 1518 1518 1519 1519 1519
1498 1499 1500 1501 1502 1503 1504 1504 1505 1505 1506 1507 1508 1509 1509 1510 1511 1512 1513 1513 1514 1514 1513 1513 1513 1514 1514 1514 1514 1514 1514 1514 1514 1514 1514 1514 1514 1514 1514 1514 1514 1514 1514
1494 1495 1496 1497 1497 1498 1499 1500 1501 1501 1502 1502 1503 1504 1504 1505 1506 1507 1508 1509 1509 1510 1509 1509 1510 1510 1510 1510 1510 1510 1510 1509 1510 1510 1510 1510 1509 1509 1509 1509 1509 1509 1510
1490 1491 1491 1492 1493 1494 1494 1495 1496 1496 1497 1498 1499 1499 1500 1501 1501 1502 1503 1503 1504 1505 1505 1504 1504 1505 1506 1506 1506 1506 1505 1505 1505 1505 1505 1505 1505 1505 1505 1505 1505 1505 1505
1486 1487 1487 1488 1488 1489 1490 1491 1491 1492 1492 1493 1494 1494 1495 1496 1496 1497 1498 1498 1499 1500 1500 1500 1500 1500 1501 1501 1501 1501 1501 1501 1501 1500 1500 1500 1500 1500 1500 1500 1500 1500 1500
1481 1482 1483 1483 1484 1484 1485 1486 1487 1487 1487 1488 1489 1489 1490 1490 1491 1492 1492 1493 1494 1494 1495 1495 1495 1495 1496 1496 1496 1496 1495 1496 1496 1496 1496 1495 1495 1495 1495 1495 1495 1495 1495
1477 1477 1478 1479 1479 1479 1480 1481 1482 1482 1483 1483 1484 1484 1485 1485 1486 1487 1487 1487 1488 1489 1489 1489 1489 1490 1490 1491 1491 1491 1491 1491 1491 1491 1490 1490 1490 1490 1490 1490 1490 1490 1490
1472 1473 1473 1474 1474 1475 1476 1476 1477 1477 1478 1478 1479 1479 1480 1480 1481 1481 1482 1483 1484 1484 1484 1484 1484 1484 1485 1486 1486 1486 1486 1486 1485 1486 1486 1485 1486 1485 1485 1485 1485 1485 1485
1468 1468 1469 1469 1469 1470 1471 1471 1472 1472 1473 1473 1473 1474 1474 1475 1476 1476 1476 1476 1477 1478 1479 1480 1479 1479 1480 1481 1481 1482 1482 1482 1481 1481 1481 1480 1480 1480 1480 1480 1480 1480 1480
1463 1464 1464 1464 1465 1465 1466 1466 1467 1467 1467 1467 1468 1468 1469 1469 1470 1470 1470 1470 1471 1472 1473 1473 1474 1475 1476 1476 1477 1477 1477 1477 1476 1476 1477 1475 1475 1475 1474 1474 1475 1475 1475
1458 1459 1459 1459 1459 1460 1461 1461 1462 1461 1461 1461 1462 1462 1463 1463 1464 1464 1465 1464 1465 1466 1467 1468 1469 1469 1470 1471 1472 1472 1472 1471 1470 1471 1471 1471 1470 1469 1469 1468 1469 1470 1470
1454 1454 1454 1454 1454 1455 1455 1456 1456 1456 1456 1456 1456 1456 1457 1458 1458 1459 1459 1459 1459 1460 1461 1462 1463 1463 1464 1465 1465 1466 1466 1466 1465 1465 1465 1466 1465 1465 1463 1462 1463 1464 1464